Grayling, MI

9:47 PM EDT on May 21, 2018 (GMT -0400)
Grayling

Weather History for KGOV - May, 2013

Change the Weather History Date:

Monday, May 20, 2013

  Actual Average (KHTL) Record (KHTL)
Temperature  
Mean Temperature 71 °F -  
Max Temperature 84 °F 67 °F 96 °F (1921)
Min Temperature 58 °F 43 °F 20 °F (1936)
Cooling Degree Days 6    
Growing Degree Days 21 (Base 50)    
Moisture  
Dew Point 62 °F    
Average Humidity 79    
Maximum Humidity 100    
Minimum Humidity 46    
Precipitation  
Precipitation 0.00 in - - ()
Sea Level Pressure  
Sea Level Pressure 29.84 in    
Wind  
Wind Speed 4 mph (SE)    
Max Wind Speed 18 mph    
Max Gust Speed 28 mph    
Visibility 9 miles    
Events Fog , Rain    
Averages and records for this station are not official NWS values.
T = Trace of Precipitation, MM = Missing Value Source: NWS Daily Summary

Daily Weather History Graph

Daily Weather History Graph

Search for Another Location

Airport or City:

Astronomy

May. 20, 2013 Rise Set
Actual Time 6:05 AM EDT 9:06 PM EDT
Civil Twilight 5:30 AM EDT 9:40 PM EDT
Nautical Twilight 4:46 AM EDT 10:25 PM EDT
Astronomical Twilight 3:53 AM EDT 11:18 PM EDT
Moon 4:01 PM EDT (5/20) 3:12 AM EDT (5/20)
Length of Visible Light 16h 10m
Length of Day
15h 00m
Waxing Gibbous, 75% of the Moon is Illuminated
May 20
Waxing Gibbous
May 25
Full
May 31
Last Quarter
Jun 8
New
Jun 16
First Quarter

Hourly Weather History & Observations

Time (EDT) Temp. Heat Index Dew Point Humidity Pressure Visibility Wind Dir Wind Speed Gust Speed Precip Events Conditions
12:14 AM 63.5 °F - 58.8 °F 85% 29.92 in 10.0 mi NNE 3.5 mph - N/A   Overcast
12:35 AM 63.5 °F - 57.9 °F 82% 29.92 in 10.0 mi NE 5.8 mph - N/A   Scattered Clouds
12:55 AM 64.9 °F - 58.6 °F 80% 29.92 in 10.0 mi NE 5.8 mph - N/A   Mostly Cloudy
1:14 AM 63.5 °F - 57.7 °F 81% 29.91 in 10.0 mi ENE 4.6 mph - N/A   Mostly Cloudy
1:35 AM 63.5 °F - 57.4 °F 80% 29.90 in 10.0 mi East 3.5 mph - N/A   Scattered Clouds
1:55 AM 61.9 °F - 55.8 °F 80% 29.90 in 10.0 mi Calm Calm - N/A   Scattered Clouds
2:14 AM 61.2 °F - 56.7 °F 85% 29.90 in 10.0 mi Calm Calm - N/A   Mostly Cloudy
2:35 AM 62.1 °F - 57.0 °F 84% 29.90 in 10.0 mi Calm Calm - N/A   Mostly Cloudy
2:55 AM 63.5 °F - 58.1 °F 83% 29.90 in 10.0 mi Calm Calm - N/A   Scattered Clouds
3:14 AM 61.0 °F - 57.7 °F 89% 29.89 in 10.0 mi East 4.6 mph - N/A   Scattered Clouds
3:35 AM 60.8 °F - 57.7 °F 90% 29.88 in 10.0 mi Calm Calm - N/A   Clear
4:14 AM 59.9 °F - 57.6 °F 92% 29.92 in 10.0 mi Calm Calm - N/A   Scattered Clouds
4:35 AM 61.0 °F - 59.2 °F 94% 29.90 in 10.0 mi ESE 4.6 mph - N/A   Scattered Clouds
4:54 AM 61.0 °F - 59.0 °F 93% 29.89 in 10.0 mi Calm Calm - N/A   Clear
5:15 AM 65.7 °F - 62.2 °F 89% 29.89 in 10.0 mi SSE 4.6 mph - N/A   Clear
5:35 AM 64.2 °F - 60.3 °F 87% 29.89 in 10.0 mi Calm Calm - N/A   Clear
5:54 AM 61.2 °F - 58.1 °F 90% 29.89 in 10.0 mi Calm Calm - N/A   Clear
6:15 AM 58.8 °F - 57.7 °F 96% 29.89 in 7.0 mi Calm Calm - N/A   Clear
6:35 AM 59.4 °F - 57.2 °F 93% 29.89 in 7.0 mi Calm Calm - N/A   Clear
6:54 AM 61.2 °F - 60.8 °F 99% 29.89 in 7.0 mi NNE 3.5 mph - N/A   Clear
7:15 AM 62.2 °F - 61.3 °F 97% 29.87 in 7.0 mi ENE 6.9 mph - N/A   Clear
7:35 AM 66.2 °F - 63.5 °F 91% 29.87 in 7.0 mi East 5.8 mph - N/A   Clear
8:15 AM 68.5 °F - 63.9 °F 85% 29.88 in 10.0 mi East 3.5 mph - N/A   Clear
8:35 AM 68.5 °F - 63.3 °F 83% 29.88 in 10.0 mi ESE 3.5 mph - N/A   Clear
8:54 AM 72.5 °F - 64.9 °F 77% 29.88 in 10.0 mi SE 9.2 mph - N/A   Mostly Cloudy
9:15 AM 73.6 °F - 64.4 °F 73% 29.87 in 10.0 mi ESE 6.9 mph - N/A   Overcast
9:35 AM 73.6 °F - 63.0 °F 69% 29.88 in 10.0 mi SE 3.5 mph - N/A   Scattered Clouds
10:15 AM 77.5 °F - 64.8 °F 65% 29.85 in 10.0 mi SSE 12.7 mph - N/A   Clear
10:35 AM 78.8 °F - 65.3 °F 63% 29.86 in 10.0 mi SE 12.7 mph - N/A   Clear
10:55 AM 78.8 °F - 65.1 °F 63% 29.87 in 10.0 mi South 9.2 mph - N/A   Clear
11:34 AM 78.8 °F - 64.9 °F 62% 29.85 in 10.0 mi SSE 10.4 mph 19.6 mph N/A   Scattered Clouds
11:55 AM 80.4 °F 82.1 °F 64.4 °F 58% 29.84 in 10.0 mi SSE 10.4 mph 18.4 mph N/A   Clear
12:15 PM 81.3 °F 83.0 °F 64.6 °F 57% 29.83 in 10.0 mi SSW 9.2 mph 20.7 mph N/A   Scattered Clouds
12:34 PM 82.0 °F 83.6 °F 64.2 °F 55% 29.82 in 10.0 mi South 13.8 mph - N/A   Clear
12:55 PM 83.7 °F 84.9 °F 63.5 °F 51% 29.81 in 10.0 mi SSE 12.7 mph 20.7 mph N/A   Clear
1:15 PM 84.7 °F 85.2 °F 61.7 °F 46% 29.81 in 10.0 mi South 11.5 mph 21.9 mph N/A   Clear
1:34 PM 83.1 °F 83.5 °F 61.2 °F 47% 29.81 in 10.0 mi SSE 13.8 mph 25.3 mph N/A   Clear
1:55 PM 83.8 °F 84.3 °F 61.9 °F 47% 29.80 in 10.0 mi South 17.3 mph 25.3 mph N/A   Clear
2:15 PM 84.9 °F 85.9 °F 63.0 °F 48% 29.78 in 10.0 mi SSE 18.4 mph 25.3 mph N/A   Scattered Clouds
2:55 PM 82.2 °F 83.0 °F 61.7 °F 50% 29.77 in 10.0 mi SSE 18.4 mph 27.6 mph N/A   Scattered Clouds
3:14 PM 80.4 °F 81.7 °F 62.8 °F 55% 29.77 in 10.0 mi South 17.3 mph 26.5 mph N/A Rain Light Rain
3:34 PM 75.6 °F - 64.6 °F 69% 29.79 in 10.0 mi WSW 3.5 mph 16.1 mph N/A Rain Light Rain
3:55 PM 74.8 °F - 66.2 °F 74% 29.78 in 10.0 mi South 10.4 mph - N/A   Scattered Clouds
4:14 PM 74.8 °F - 66.0 °F 74% 29.78 in 10.0 mi South 5.8 mph - N/A   Scattered Clouds
4:34 PM 73.6 °F - 63.5 °F 71% 29.78 in 10.0 mi SSW 4.6 mph - N/A   Clear
4:55 PM 73.6 °F - 63.0 °F 69% 29.77 in 10.0 mi South 6.9 mph - N/A   Clear
5:14 PM 73.6 °F - 63.5 °F 71% 29.77 in 10.0 mi Calm Calm - N/A   Clear
5:35 PM 73.6 °F - 65.1 °F 75% 29.77 in 10.0 mi South 3.5 mph - N/A   Clear
5:55 PM 73.6 °F - 67.1 °F 80% 29.78 in 10.0 mi SSE 3.5 mph - N/A   Clear
6:14 PM 73.4 °F - 68.0 °F 83% 29.79 in 10.0 mi Calm Calm - N/A   Clear
6:35 PM 71.1 °F - 67.3 °F 88% 29.79 in 10.0 mi ESE 3.5 mph - N/A   Clear
6:55 PM 71.1 °F - 66.9 °F 87% 29.79 in 10.0 mi SSE 3.5 mph - N/A   Clear
7:14 PM 71.1 °F - 66.9 °F 87% 29.79 in 10.0 mi South 3.5 mph - N/A   Clear
7:35 PM 72.1 °F - 66.0 °F 81% 29.79 in 10.0 mi Calm Calm - N/A   Clear
7:55 PM 73.6 °F - 66.6 °F 79% 29.79 in 10.0 mi Calm Calm - N/A   Clear
8:14 PM 71.1 °F - 64.6 °F 80% 29.79 in 10.0 mi Calm Calm - N/A   Clear
8:35 PM 69.1 °F - 63.0 °F 81% 29.79 in 10.0 mi Calm Calm - N/A   Clear
8:55 PM 68.5 °F - 65.3 °F 89% 29.79 in 10.0 mi SSE 3.5 mph - N/A   Clear
9:14 PM 68.5 °F - 66.0 °F 92% 29.79 in 10.0 mi Calm Calm - N/A   Clear
9:35 PM 66.2 °F - 64.6 °F 94% 29.79 in 10.0 mi Calm Calm - N/A   Clear
9:54 PM 63.5 °F - 63.0 °F 98% 29.80 in 10.0 mi Calm Calm - N/A   Clear
10:14 PM 63.5 °F - 63.5 °F 100% 29.80 in 7.0 mi Calm Calm - N/A   Clear
10:35 PM 61.9 °F - 61.9 °F 100% 29.80 in 1.5 mi Calm Calm - N/A   Mist
10:54 PM 59.7 °F - 59.7 °F 100% 29.80 in 0.8 mi Calm Calm - N/A   Mist
11:14 PM 59.9 °F - 59.9 °F 100% 29.80 in 2.0 mi Calm Calm - N/A   Clear
11:35 PM 59.2 °F - 59.2 °F 100% 29.80 in 0.2 mi Calm Calm - N/A Fog Fog
11:54 PM 58.5 °F - 58.5 °F 100% 29.80 in 0.5 mi Calm Calm - N/A Fog Fog